When you browse on this site, cookies collect data to enhance your experience and personalize the content and advertising you see.
Visit our Privacy Policy to learn more. By continuing to use the site, you agree to this use of cookies and data.
  • Em Portugal
  • Lista de países
  • Para 7 dias
  • Temperatura da água
  • Mapa do tempo
  • Widgets de tempo
  • user-avatar
    Iniciar Sessão

    Previsão horária em Sidnei

    Hoje, 22 Setembro, Domingo

    Tempo Temperatura Precipitação Vento Pressão Humidade
    00:00 +19°C° 0.4 mm 2 m/s 762 mmHg 84%
    01:00 +19°C° 0.4 mm 3 m/s 762 mmHg 85%
    02:00 +19°C° 0.2 mm 3 m/s 762 mmHg 86%
    03:00 +18°C° 0.2 mm 3 m/s 763 mmHg 87%
    04:00 +18°C° 0 mm 3 m/s 762 mmHg 87%
    05:00 +18°C° 0.3 mm 3 m/s 763 mmHg 87%
    06:00 +18°C° 0.3 mm 3 m/s 763 mmHg 86%
    07:00 +18°C° 0.3 mm 3 m/s 764 mmHg 86%
    08:00 +19°C° 0.2 mm 2 m/s 765 mmHg 71%
    09:00 +20°C° 0.2 mm 2 m/s 765 mmHg 63%
    10:00 +23°C° 0 mm 2 m/s 765 mmHg 59%
    11:00 +24°C° 0.2 mm 2 m/s 764 mmHg 55%
    12:00 +26°C° 0.2 mm 2 m/s 764 mmHg 51%
    13:00 +27°C° 0.2 mm 3 m/s 764 mmHg 48%
    14:00 +25°C° 0.2 mm 3 m/s 764 mmHg 51%
    15:00 +24°C° 0.2 mm 3 m/s 764 mmHg 55%
    16:00 +22°C° 0.2 mm 4 m/s 764 mmHg 58%
    17:00 +20°C° 0 mm 3 m/s 764 mmHg 64%
    18:00 +19°C° 0 mm 3 m/s 765 mmHg 70%
    19:00 +17°C° 0 mm 2 m/s 765 mmHg 76%
    20:00 +17°C° 0 mm 2 m/s 765 mmHg 74%
    21:00 +16°C° 0 mm 1 m/s 766 mmHg 72%
    22:00 +16°C° 0 mm 1 m/s 766 mmHg 70%
    23:00 +15°C° 0 mm 2 m/s 766 mmHg 68%

    Amanhã, 23 Setembro, Segunda-feira

    Tempo Temperatura Precipitação Vento Pressão Humidade
    00:00 +14°C° 0 mm 3 m/s 766 mmHg 67%
    01:00 +13°C° 0 mm 4 m/s 766 mmHg 65%
    02:00 +13°C° 0 mm 4 m/s 766 mmHg 66%
    03:00 +12°C° 0 mm 4 m/s 766 mmHg 67%
    04:00 +11°C° 0 mm 4 m/s 766 mmHg 68%
    05:00 +12°C° 0 mm 4 m/s 766 mmHg 68%
    06:00 +12°C° 0 mm 3 m/s 766 mmHg 67%
    07:00 +12°C° 0 mm 3 m/s 766 mmHg 67%
    08:00 +14°C° 0 mm 3 m/s 766 mmHg 55%
    09:00 +17°C° 0 mm 3 m/s 766 mmHg 44%
    10:00 +20°C° 0 mm 3 m/s 766 mmHg 33%
    11:00 +20°C° 0 mm 4 m/s 765 mmHg 31%
    12:00 +21°C° 0 mm 4 m/s 764 mmHg 29%
    13:00 +21°C° 0 mm 4 m/s 764 mmHg 27%
    14:00 +21°C° 0 mm 5 m/s 764 mmHg 28%
    15:00 +21°C° 0 mm 5 m/s 764 mmHg 29%
    16:00 +20°C° 0 mm 5 m/s 764 mmHg 30%
    17:00 +19°C° 0 mm 6 m/s 765 mmHg 35%
    18:00 +16°C° 0 mm 6 m/s 765 mmHg 39%
    19:00 +15°C° 0 mm 7 m/s 766 mmHg 43%
    20:00 +14°C° 0 mm 7 m/s 766 mmHg 47%
    21:00 +13°C° 0 mm 6 m/s 767 mmHg 50%
    22:00 +11°C° 0 mm 6 m/s 768 mmHg 53%
    23:00 +10°C° 0 mm 5 m/s 768 mmHg 54%

    Depois de amanhã, 24 Setembro, Terça-feira

    Tempo Temperatura Precipitação Vento Pressão Humidade
    00:00 +10°C° 0 mm 5 m/s 768 mmHg 56%
    01:00 +10°C° 0 mm 4 m/s 768 mmHg 58%
    02:00 +10°C° 0 mm 4 m/s 768 mmHg 60%
    03:00 +9°C° 0 mm 3 m/s 768 mmHg 61%
    04:00 +9°C° 0 mm 3 m/s 768 mmHg 63%
    05:00 +9°C° 0 mm 3 m/s 768 mmHg 62%
    06:00 +9°C° 0 mm 3 m/s 769 mmHg 61%
    07:00 +10°C° 0 mm 3 m/s 769 mmHg 59%
    08:00 +12°C° 0 mm 3 m/s 769 mmHg 52%
    09:00 +16°C° 0 mm 2 m/s 769 mmHg 44%
    10:00 +18°C° 0 mm 2 m/s 769 mmHg 37%
    11:00 +20°C° 0 mm 2 m/s 768 mmHg 33%
    12:00 +21°C° 0 mm 2 m/s 768 mmHg 29%
    13:00 +23°C° 0 mm 2 m/s 767 mmHg 25%
    14:00 +22°C° 0 mm 3 m/s 767 mmHg 27%
    15:00 +22°C° 0 mm 4 m/s 766 mmHg 29%
    16:00 +22°C° 0 mm 5 m/s 766 mmHg 31%
    17:00 +20°C° 0 mm 4 m/s 767 mmHg 43%
    18:00 +17°C° 0 mm 4 m/s 767 mmHg 54%
    19:00 +14°C° 0 mm 3 m/s 768 mmHg 66%
    20:00 +14°C° 0 mm 3 m/s 768 mmHg 67%
    21:00 +14°C° 0 mm 2 m/s 768 mmHg 68%
    22:00 +13°C° 0 mm 2 m/s 769 mmHg 69%
    23:00 +13°C° 0 mm 2 m/s 769 mmHg 69%

    25 Setembro, Quarta-feira

    Tempo Temperatura Precipitação Vento Pressão Humidade
    00:00 +13°C° 0 mm 2 m/s 768 mmHg 68%
    01:00 +12°C° 0 mm 2 m/s 768 mmHg 68%
    02:00 +11°C° 0 mm 3 m/s 768 mmHg 68%
    03:00 +10°C° 0 mm 3 m/s 768 mmHg 68%
    04:00 +8°C° 0 mm 4 m/s 768 mmHg 67%
    05:00 +10°C° 0 mm 4 m/s 769 mmHg 66%
    06:00 +10°C° 0 mm 3 m/s 769 mmHg 64%
    07:00 +10°C° 0 mm 3 m/s 769 mmHg 63%
    08:00 +12°C° 0 mm 3 m/s 769 mmHg 60%
    09:00 +14°C° 0 mm 3 m/s 769 mmHg 58%
    10:00 +17°C° 0 mm 2 m/s 769 mmHg 56%
    11:00 +17°C° 0.1 mm 3 m/s 769 mmHg 57%
    12:00 +18°C° 0.1 mm 3 m/s 768 mmHg 58%
    13:00 +18°C° 0.1 mm 4 m/s 768 mmHg 60%
    14:00 +18°C° 0 mm 4 m/s 768 mmHg 60%
    15:00 +18°C° 0 mm 4 m/s 767 mmHg 61%
    16:00 +17°C° 0 mm 5 m/s 767 mmHg 62%
    17:00 +17°C° 0 mm 4 m/s 768 mmHg 67%
    18:00 +15°C° 0 mm 4 m/s 768 mmHg 72%
    19:00 +13°C° 0 mm 3 m/s 769 mmHg 76%
    20:00 +13°C° 0 mm 3 m/s 769 mmHg 77%
    21:00 +14°C° 0 mm 2 m/s 769 mmHg 79%
    22:00 +13°C° 0 mm 1 m/s 770 mmHg 80%
    23:00 +13°C° 0 mm 1 m/s 769 mmHg 80%

    26 Setembro, Quinta-feira

    Tempo Temperatura Precipitação Vento Pressão Humidade
    00:00 +13°C° 0 mm 1 m/s 769 mmHg 81%
    01:00 +13°C° 0 mm 1 m/s 769 mmHg 81%
    02:00 +13°C° 0 mm 1 m/s 769 mmHg 82%
    03:00 +13°C° 0 mm 1 m/s 769 mmHg 82%
    04:00 +13°C° 0 mm 1 m/s 768 mmHg 83%
    05:00 +13°C° 0 mm 1 m/s 768 mmHg 81%
    06:00 +14°C° 0 mm 1 m/s 769 mmHg 79%
    07:00 +14°C° 0 mm 1 m/s 769 mmHg 77%
    08:00 +16°C° 0 mm 1 m/s 768 mmHg 69%
    09:00 +19°C° 0 mm 1 m/s 768 mmHg 61%
    10:00 +20°C° 0 mm 2 m/s 768 mmHg 53%
    11:00 +20°C° 0.1 mm 2 m/s 767 mmHg 54%
    12:00 +20°C° 0.1 mm 3 m/s 766 mmHg 54%
    13:00 +20°C° 0.1 mm 4 m/s 766 mmHg 54%
    14:00 +20°C° 0 mm 5 m/s 765 mmHg 54%
    15:00 +20°C° 0 mm 5 m/s 765 mmHg 55%
    16:00 +20°C° 0 mm 5 m/s 764 mmHg 55%
    17:00 +17°C° 0 mm 5 m/s 765 mmHg 62%
    18:00 +16°C° 0 mm 5 m/s 765 mmHg 69%
    19:00 +15°C° 0 mm 4 m/s 765 mmHg 77%
    20:00 +14°C° 0.1 mm 4 m/s 765 mmHg 80%
    21:00 +14°C° 0.1 mm 3 m/s 765 mmHg 83%
    22:00 +14°C° 0.1 mm 2 m/s 765 mmHg 87%
    23:00 +14°C° 0 mm 2 m/s 765 mmHg 88%

    27 Setembro, Sexta-feira

    Tempo Temperatura Precipitação Vento Pressão Humidade
    00:00 +14°C° 0 mm 2 m/s 765 mmHg 90%
    01:00 +13°C° 0 mm 2 m/s 765 mmHg 91%
    02:00 +12°C° 0 mm 3 m/s 764 mmHg 90%
    03:00 +11°C° 0 mm 3 m/s 764 mmHg 89%
    04:00 +10°C° 0 mm 3 m/s 764 mmHg 88%
    05:00 +11°C° 0 mm 3 m/s 764 mmHg 81%
    06:00 +11°C° 0 mm 3 m/s 764 mmHg 74%
    07:00 +12°C° 0 mm 3 m/s 764 mmHg 67%
    08:00 +16°C° 0 mm 3 m/s 764 mmHg 56%
    09:00 +19°C° 0 mm 4 m/s 763 mmHg 46%
    10:00 +21°C° 0 mm 4 m/s 763 mmHg 35%
    11:00 +23°C° 0 mm 4 m/s 763 mmHg 31%
    12:00 +26°C° 0 mm 3 m/s 762 mmHg 27%
    13:00 +28°C° 0 mm 3 m/s 762 mmHg 23%
    14:00 +28°C° 0 mm 3 m/s 762 mmHg 25%
    15:00 +27°C° 0 mm 3 m/s 762 mmHg 26%
    16:00 +27°C° 0 mm 3 m/s 761 mmHg 28%
    17:00 +25°C° 0 mm 2 m/s 762 mmHg 35%
    18:00 +21°C° 0 mm 2 m/s 763 mmHg 42%
    19:00 +19°C° 0 mm 2 m/s 763 mmHg 49%
    20:00 +18°C° 0 mm 2 m/s 764 mmHg 50%
    21:00 +18°C° 0 mm 2 m/s 764 mmHg 52%
    22:00 +17°C° 0 mm 2 m/s 764 mmHg 53%
    23:00 +17°C° 0 mm 2 m/s 764 mmHg 55%
    Mostrar mais